Change the Weather History Date:

Thursday, November 7, 2013

  Actual Average Record
Temperature  
Mean Temperature 53 °F 61 °F  
Max Temperature 66 °F 73 °F 88 °F (1916)
Min Temperature 40 °F 50 °F 22 °F (1959)
Degree Days  
Heating Degree Days 12 6  
Month to date heating degree days 39 36  
Since 1 July heating degree days 65 102  
Cooling Degree Days 0 2  
Month to date cooling degree days 5 14  
Year to date cooling degree days 2821 2558  
Growing Degree Days 2 (Base 50)    
Moisture  
Dew Point 39 °F    
Average Humidity 63    
Maximum Humidity 92    
Minimum Humidity 34    
Precipitation  
Precipitation 0.00 in 0.16 in 3.90 in (1938)
Month to date precipitation 0.01 1.18  
Year to date precipitation 36.53 40.68  
Snow  
Snow 0.00 in - - ()
Month to date snowfall 0.0  
Since 1 July snowfall 0.0  
Since 1 September snowfall 0.0  
Snow Depth 0.00 in    
Sea Level Pressure  
Sea Level Pressure 30.38 in    
Wind  
Wind Speed 7 mph (North)    
Max Wind Speed 16 mph    
Max Gust Speed 23 mph    
Visibility 10 miles    
Events      
T = Trace of Precipitation, MM = Missing Value Source: NWS Daily Summary

Daily Weather History Graph

Daily Weather History Graph

Search for Another Location

Airport or City:

Trip Planner

Search our weather history database for the weather conditions in past years. The results will help you decide how hot, cold, wet, or windy it might be!

Date:

Astronomy

Nov. 07, 2013 Rise Set
Actual Time 6:39 AM CST 5:25 PM CST
Civil Twilight 6:14 AM CST 5:50 PM CST
Nautical Twilight 5:45 AM CST 6:19 PM CST
Astronomical Twilight 5:16 AM CST 6:48 PM CST
Moon 10:45 AM CST (11/7) 9:40 PM CST (11/7)
Length of Visible Light 11h 36m
Length of Day
10h 45m
Waxing Crescent, 23% of the Moon is Illuminated
Nov 7
Waxing Crescent
Nov 9
First Quarter
Nov 17
Full
Nov 25
Last Quarter
Dec 2
New

Hourly Weather History & Observations

Time (CST) Temp. Windchill Dew Point Humidity Pressure Visibility Wind Dir Wind Speed Gust Speed Precip Events Conditions
12:53 AM 46.0 °F 43.1 °F 39.9 °F 79% 30.29 in 10.0 mi North 5.8 mph - N/A   Clear
1:53 AM 45.0 °F 39.7 °F 39.0 °F 80% 30.30 in 10.0 mi North 10.4 mph - N/A   Clear
2:53 AM 44.1 °F 39.5 °F 39.0 °F 82% 30.31 in 10.0 mi North 8.1 mph - N/A   Clear
3:53 AM 42.1 °F 37.7 °F 37.9 °F 85% 30.33 in 10.0 mi North 6.9 mph - N/A   Clear
4:53 AM 42.1 °F 38.4 °F 37.9 °F 85% 30.34 in 10.0 mi North 5.8 mph - N/A   Clear
5:53 AM 41.0 °F 38.0 °F 37.9 °F 89% 30.37 in 10.0 mi North 4.6 mph - N/A   Clear
6:53 AM 39.9 °F 37.8 °F 37.9 °F 93% 30.40 in 10.0 mi North 3.5 mph - N/A   Clear
7:53 AM 44.1 °F 38.6 °F 39.0 °F 82% 30.42 in 10.0 mi NNE 10.4 mph 17.3 mph N/A   Clear
8:53 AM 48.9 °F - 39.0 °F 69% 30.43 in 10.0 mi NNE 9.2 mph 16.1 mph N/A   Clear
9:53 AM 54.0 °F - 37.9 °F 55% 30.44 in 10.0 mi North 9.2 mph - N/A   Clear
10:53 AM 57.9 °F - 36.0 °F 44% 30.43 in 10.0 mi North 12.7 mph 19.6 mph N/A   Clear
11:53 AM 62.1 °F - 35.1 °F 37% 30.41 in 10.0 mi North 12.7 mph 20.7 mph N/A   Clear
12:53 PM 63.0 °F - 34.0 °F 34% 30.39 in 10.0 mi NNE 11.5 mph 19.6 mph N/A   Clear
1:53 PM 64.0 °F - 35.1 °F 34% 30.38 in 10.0 mi North 16.1 mph 21.9 mph N/A   Clear
2:53 PM 64.9 °F - 36.0 °F 34% 30.36 in 10.0 mi NNE 8.1 mph - N/A   Clear
3:53 PM 64.9 °F - 37.0 °F 36% 30.36 in 10.0 mi North 6.9 mph 17.3 mph N/A   Clear
4:53 PM 61.0 °F - 37.0 °F 41% 30.37 in 10.0 mi North 8.1 mph - N/A   Clear
5:53 PM 57.0 °F - 37.9 °F 49% 30.38 in 10.0 mi Calm Calm - N/A   Clear
6:53 PM 53.1 °F - 42.1 °F 66% 30.39 in 10.0 mi North 3.5 mph - N/A   Clear
7:53 PM 51.1 °F - 44.1 °F 77% 30.38 in 10.0 mi Calm Calm - N/A   Clear
8:53 PM 51.1 °F - 43.0 °F 74% 30.39 in 10.0 mi Calm Calm - N/A   Clear
9:53 PM 48.9 °F - 45.0 °F 86% 30.39 in 10.0 mi Calm Calm - N/A   Clear
10:53 PM 48.0 °F - 45.0 °F 89% 30.38 in 10.0 mi NNE 3.5 mph - N/A   Clear
11:53 PM 46.0 °F - 43.0 °F 89% 30.39 in 10.0 mi Calm Calm - N/A   Clear